Weather History for Siemreap, Cambodia

Change the Weather History Date:

Monday, December 17, 2012

  Actual Average Record
Temperature  
Mean Temperature 84 °F -  
Max Temperature 91 °F - - ()
Min Temperature 78 °F - - ()
Cooling Degree Days 20    
Growing Degree Days 34 (Base 50)    
Moisture  
Dew Point 72 °F    
Average Humidity 68    
Maximum Humidity 89    
Minimum Humidity 49    
Precipitation  
Precipitation 0.00 in - - ()
Sea Level Pressure  
Sea Level Pressure 29.81 in    
Wind  
Wind Speed 2 mph ()    
Max Wind Speed 9 mph    
Max Gust Speed -    
Visibility 6.0 miles    
Events      
T = Trace of Precipitation, MM = Missing Value Source: Averaged Metar Reports

Daily Weather History Graph

Daily Weather History Graph

Search for Another Location

Airport:

Trip Planner

Search our weather history database for the weather conditions in past years. The results will help you decide how hot, cold, wet, or windy it might be!

Date:

Astronomy

Dec. 17, 2012 Rise Set
Actual Time 6:20 AM ICT 5:41 PM ICT
Civil Twilight 5:57 AM ICT 6:04 PM ICT
Nautical Twilight 5:30 AM ICT 6:30 PM ICT
Astronomical Twilight 5:04 AM ICT 6:57 PM ICT
Moon 9:43 AM ICT (12/17) 9:48 PM ICT (12/17)
Length of Visible Light 12h 06m
Length of Day
11h 20m
Waxing Crescent, 20% of the Moon is Illuminated
Dec 17
Waxing Crescent
Dec 20
First Quarter
Dec 28
Full
Jan 5
Last Quarter
Jan 12
New

Hourly Weather History & Observations

Time (ICT) Temp. Heat Index Dew Point Humidity Pressure Visibility Wind Dir Wind Speed Gust Speed Precip Events Conditions
12:00 AM 78.8 °F - 75.2 °F 89% 29.83 in 5.6 mi Calm Calm - N/A   Unknown
7:00 AM 78.8 °F - 69.8 °F 74% 29.83 in 5.6 mi ESE 4.6 mph - N/A   Partly Cloudy
7:30 AM 78.8 °F - 69.8 °F 74% 29.86 in 5.6 mi ESE 2.3 mph - N/A   Partly Cloudy
8:00 AM 78.8 °F - 69.8 °F 74% 29.86 in 6.2 mi ESE 1.2 mph - N/A   Partly Cloudy
8:30 AM 82.4 °F 86.3 °F 69.8 °F 66% 29.86 in 6.2 mi ESE 3.5 mph - N/A   Partly Cloudy
9:00 AM 84.2 °F 87.3 °F 68.0 °F 58% 29.86 in 6.2 mi SE 6.9 mph - N/A   Partly Cloudy
9:30 AM 86.0 °F 89.4 °F 68.0 °F 55% 29.86 in 6.2 mi SE 9.2 mph - N/A   Partly Cloudy
10:00 AM 86.0 °F 89.4 °F 68.0 °F 55% 29.86 in 6.2 mi SSE 9.2 mph - N/A   Partly Cloudy
10:30 AM 87.8 °F 91.4 °F 68.0 °F 52% 29.86 in 6.2 mi SE 6.9 mph - N/A   Partly Cloudy
11:00 AM 89.6 °F 94.7 °F 69.8 °F 52% 29.86 in 6.2 mi Calm Calm - N/A   Partly Cloudy
11:30 AM 89.6 °F 94.7 °F 69.8 °F 52% 29.83 in 6.2 mi Variable 1.2 mph - N/A   Partly Cloudy
12:00 PM 89.6 °F 94.7 °F 69.8 °F 52% 29.83 in 6.2 mi Calm Calm - N/A   Partly Cloudy
12:30 PM 89.6 °F 96.2 °F 71.6 °F 55% 29.83 in 6.2 mi Calm Calm - N/A   Partly Cloudy
1:00 PM 89.6 °F 98.2 °F 73.4 °F 59% 29.80 in 6.2 mi SW 5.8 mph - N/A   Scattered Clouds
1:30 PM 89.6 °F 96.2 °F 71.6 °F 55% 29.77 in 6.2 mi SSW 6.9 mph - N/A   Scattered Clouds
2:00 PM 91.4 °F 98.4 °F 71.6 °F 52% 29.74 in 6.2 mi Variable 1.2 mph - N/A   Scattered Clouds
2:30 PM 91.4 °F 98.4 °F 71.6 °F 52% 29.74 in 6.2 mi Variable 1.2 mph - N/A   Scattered Clouds
3:00 PM 89.6 °F 96.2 °F 71.6 °F 55% 29.74 in 6.2 mi SSW 5.8 mph - N/A   Scattered Clouds
3:30 PM 91.4 °F 96.8 °F 69.8 °F 49% 29.74 in 6.2 mi SSW 4.6 mph - N/A   Scattered Clouds
4:00 PM 91.4 °F 98.4 °F 71.6 °F 52% 29.74 in 6.2 mi SSW 4.6 mph - N/A   Scattered Clouds
5:00 PM 87.8 °F 93.8 °F 71.6 °F 58% 29.74 in 6.2 mi SSW 4.6 mph - N/A   Scattered Clouds
5:30 PM 87.8 °F 93.8 °F 71.6 °F 58% 29.77 in 6.2 mi South 1.2 mph - N/A   Scattered Clouds
6:00 PM 84.2 °F 90.9 °F 73.4 °F 70% 29.77 in 6.2 mi Calm Calm - N/A   Partly Cloudy
6:30 PM 82.4 °F 88.2 °F 73.4 °F 74% 29.77 in 6.2 mi Calm Calm - N/A   Partly Cloudy
7:00 PM 82.4 °F 89.5 °F 75.2 °F 79% 29.80 in 6.2 mi WSW 2.3 mph - N/A   Partly Cloudy
7:30 PM 82.4 °F 90.9 °F 77.0 °F 84% 29.80 in 5.6 mi Calm Calm - N/A   Unknown
8:00 PM 80.6 °F 86.2 °F 75.2 °F 84% 29.80 in 5.6 mi Calm Calm - N/A   Unknown
8:30 PM 80.6 °F 86.2 °F 75.2 °F 84% 29.80 in 5.6 mi Calm Calm - N/A   Unknown
9:00 PM 80.6 °F 87.1 °F 77.0 °F 89% 29.83 in 5.6 mi Calm Calm - N/A   Unknown
9:30 PM 80.6 °F 86.2 °F 75.2 °F 84% 29.83 in 5.6 mi Calm Calm - N/A   Unknown
10:00 PM 78.8 °F - 75.2 °F 89% 29.83 in 5.6 mi Calm Calm - N/A   Unknown
10:30 PM 78.8 °F - 75.2 °F 89% 29.83 in 5.6 mi Calm Calm - N/A   Unknown
11:00 PM 78.8 °F - 75.2 °F 89% 29.83 in 5.6 mi Calm Calm - N/A   Unknown
11:30 PM 78.8 °F - 75.2 °F 89% 29.83 in 5.6 mi Calm Calm - N/A   Unknown